User: anonymous   Login
Location: Unspecified
(26.1220°N, 0.0000°E)
Time: 10:46:39
(UTC+00:00)
Language:

Envisat - Orbit

View from above orbital plane
View from above orbital plane
View from above satellite
View from above satellite

Ground track
Ground track

The orbit data is extracted from the following two-line orbital elements,

1 27386U 02009A   19167.09516073  .00000002  00000-0  14030-4 0  9996
2 27386  98.1491 188.2548 0001266  93.4961 332.9778 14.37950723905827
Epoch (UTC): 16 June 2019 02:17:01
Eccentricity: 0.0001266
inclination: 98.1491°
perigee height: 764 km
apogee height: 766 km
right ascension of ascending node: 188.2548°
argument of perigee: 93.4961°
revolutions per day: 14.37950723
mean anomaly at epoch: 332.9778°
orbit number at epoch: 90582

The dashed part of the orbit path shows where the satellite is in the earth's shadow,  

DLR